1331337629216,138.221
1331337689216,138.091
1331337749216,138.254
1331337809216,138.239
1331337869216,138.523
1331337929216,138.169
1331337989216,138.143
1331338049216,138.118
1331338109216,138.125
1331338169216,138.211
1331338229216,138.153
1331338289216,137.857
1331338349216,138.092
1331338409216,138.041
1331338469216,138.005
1331338529216,137.922
1331338589216,138.212
1331338649216,138.091
1331338709216,138.087
1331338769216,137.742
1331338829216,138.290
1331338889216,138.109
1331338949216,138.651
1331339009216,138.265
1331339069216,138.123
1331339129216,138.360
1331339189216,138.296
1331339249216,138.190
1331339309216,138.467
1331339369216,138.291
1331339429216,138.463
1331339489216,138.656
1331339549216,138.717
1331339609216,138.614
1331339669216,138.590
1331339729216,138.473
1331339789216,138.555
1331339849216,138.360
1331339909216,138.691
1331339969216,138.373
1331340029216,138.492
1331340089216,138.758
1331340149216,138.687
1331340209216,138.693
1331340269216,138.689
1331340329216,138.606
1331340389216,138.809
1331340449216,138.840
1331340509216,138.745
1331340569216,138.864
1331340629216,138.735
1331340689216,139.051
1331340749216,139.157
1331340809216,139.022
1331340869216,139.438
1331340929216,138.937
1331340989216,139.271
1331341049216,139.423
1331341109216,139.172
1331341169216,139.106
1331341229229,138.933
1331341289229,139.185
1331341349229,139.187
1331341409229,139.184
1331341469229,139.497
1331341529229,139.320
1331341589229,139.570
1331341649229,139.177
1331341709229,139.395
1331341769229,139.539
1331341829229,139.892
1331341889229,139.672
1331341949229,139.674
1331342009229,139.795
1331342069229,139.716
1331342129229,139.768
1331342189229,140.018
1331342249229,140.025
1331342309229,140.064
1331342369229,140.199
1331342429229,139.946
1331342489229,139.682
1331342549229,139.982
1331342609229,139.971
1331342669229,139.817
1331342729229,139.969
1331342789229,140.035
1331342849229,139.952
1331342909229,139.933
1331342969229,139.983
1331343029229,140.074
1331343089229,140.011
1331343149229,140.283
1331343209229,139.923
1331343269229,139.870
1331343329229,139.920
1331343389229,139.763
1331343449229,139.592
1331343509229,139.894
1331343569229,139.936
1331343629229,139.983
1331343689229,139.681
1331343749229,139.695
1331343809229,139.632
1331343869229,140.025
1331343929229,139.932
1331343989229,139.926
1331344049229,139.962
1331344109229,139.670
1331344169229,139.886
1331344229229,139.544
1331344289229,139.528
1331344349229,139.544
1331344409229,139.381
1331344469229,139.848
1331344529229,139.530
1331344589229,139.861
1331344649229,139.736
1331344709229,139.626
1331344769229,139.463
1331344829242,139.644
1331344889242,139.872
1331344949242,139.486
1331345009242,139.787
1331345069242,140.042
1331345129242,139.979
1331345189242,139.590
1331345249242,139.642
1331345309242,139.421
1331345369242,139.849
1331345429242,139.896
1331345489242,139.755
1331345549242,139.941
1331345609242,140.069
1331345669242,140.021
1331345729242,140.065
1331345789242,140.113
1331345849242,140.153
1331345909242,139.855
1331345969242,140.077
1331346029242,140.040
1331346089242,140.023
1331346149242,140.189
1331346209242,140.066
1331346269242,140.236
1331346329242,139.791
1331346389242,140.163
1331346449242,139.662
1331346509242,139.802
1331346569242,140.081
1331346629242,139.792
1331346689242,139.861
1331346749242,140.109
1331346809242,139.744
1331346869242,140.044
1331346929242,140.317
1331346989242,140.367
1331347049242,140.324
1331347109242,140.313
1331347169242,140.192
1331347229242,140.396
1331347289242,140.327
1331347349242,140.580
1331347409242,140.479
1331347469242,139.840
1331347529242,140.150
1331347589242,140.273
1331347649242,140.127
1331347709242,140.105
1331347769242,139.977
1331347829242,140.347
1331347889242,140.349
1331347949242,140.072
1331348009242,139.961
1331348069242,140.244
1331348129242,140.333
1331348189242,139.849
1331348249242,140.235
1331348309242,140.152
1331348369242,140.195
1331348429255,140.208
1331348489255,140.110
1331348549255,140.168
1331348609255,140.050
1331348669255,140.080
1331348729255,139.888
1331348789255,139.899
1331348849255,140.143
1331348909255,139.993
1331348969255,140.204
1331349029255,139.765
1331349089255,140.125
1331349149255,140.370
1331349209255,140.107
1331349269255,139.873
1331349329255,140.202
1331349389255,139.806
1331349449255,140.172
1331349509255,139.849
1331349569255,139.830
1331349629255,139.988
1331349689255,139.777
1331349749255,140.059
1331349809255,139.746
1331349869255,139.781
1331349929255,139.638
1331349989255,139.962
1331350049255,139.786
1331350109255,139.873
1331350169255,139.840
1331350229255,139.579
1331350289255,139.705
1331350349255,139.766
1331350409255,140.125
1331350469255,139.651
1331350529255,139.580
1331350589255,139.846
1331350649255,139.751
1331350709255,139.683
1331350769255,139.622
1331350829255,139.921
1331350889255,139.940
1331350949255,139.670
1331351009255,139.557
1331351069255,139.894
1331351129255,139.681
1331351189255,139.616
1331351249255,140.011
1331351309255,139.619
1331351369255,139.823
1331351429255,139.865
1331351489255,139.879
1331351549255,139.888
1331351609255,139.851
1331351669255,139.842
1331351729255,139.868
1331351789255,139.985
1331351849255,139.750
1331351909255,139.843
1331351969255,139.764
1331352029268,139.753
1331352089268,139.625
1331352149268,139.942
1331352209268,140.137
1331352269268,140.053
1331352329268,139.962
1331352389268,139.807
1331352449268,139.912
1331352509268,139.819
1331352569268,139.805
1331352629268,139.684
1331352689268,139.844
1331352749268,139.879
1331352809268,139.980
1331352869268,139.633
1331352929268,139.745
1331352989268,140.067
1331353049268,139.618
1331353109268,139.637
1331353169268,140.139
1331353229268,139.747
1331353289268,139.680
1331353349268,139.957
1331353409268,139.742
1331353469268,139.875
1331353529268,139.931
1331353589268,139.774
1331353649268,139.839
1331353709268,139.901
1331353769268,139.842
1331353829268,139.746
1331353889268,139.636
1331353949268,140.018
1331354009268,139.813
1331354069268,139.445
1331354129268,139.933
1331354189268,140.093
1331354249268,139.970
1331354309268,139.676
1331354369268,139.816
1331354429268,139.622
1331354489268,139.425
1331354549268,139.693
1331354609268,139.936
1331354669268,139.550
1331354729268,139.534
1331354789268,139.739
1331354849268,139.835
1331354909268,139.800
1331354969268,139.876
1331355029268,139.720
1331355089268,139.557
1331355149268,139.529
1331355209268,139.653
1331355269268,139.634
1331355329268,139.596
1331355389268,139.628
1331355449268,139.548
1331355509268,139.895
1331355569268,139.903
1331355629281,139.711
1331355689281,139.845
1331355749281,139.884
1331355809281,139.863
1331355869281,139.983
1331355929281,139.982
1331355989281,139.817
1331356049281,139.863
1331356109281,140.177
1331356169281,140.073
1331356229281,139.871
1331356289281,139.923
1331356349281,139.989
1331356409281,140.033
1331356469281,140.201
1331356529281,139.923
1331356589281,140.076
1331356649281,140.019
1331356709281,140.328
1331356769281,140.315
1331356829281,140.296
1331356889281,140.205
1331356949281,140.165
1331357009281,140.417
1331357069281,140.285
1331357129281,140.200
1331357189281,140.090
1331357249281,140.028
1331357309281,140.147
1331357369281,139.998
1331357429281,140.204
1331357489281,140.247
1331357549281,140.277
1331357609281,140.136
1331357669281,140.133
1331357729281,140.288
1331357789281,140.253
1331357849281,140.230
1331357909281,140.168
1331357969281,139.924
1331358029281,140.060
1331358089281,139.938
1331358149281,139.993
1331358209281,139.803
1331358269281,140.065
1331358329281,140.667
1331358389281,140.272
1331358449281,140.230
1331358509281,140.193
1331358569281,139.783
1331358629281,139.645
1331358689281,139.863
1331358749281,140.026
1331358809281,140.142
1331358869281,139.868
1331358929281,139.739
1331358989281,140.142
1331359049281,140.180
1331359109281,140.061
1331359169281,140.206
1331359229294,139.958
1331359289294,140.164
1331359349294,140.074
1331359409294,140.101
1331359469294,140.193
1331359529294,140.237
1331359589294,140.447
1331359649294,139.820
1331359709294,139.995
1331359769294,140.031
1331359829294,140.093
1331359889294,140.198
1331359949294,140.213
1331360009294,140.343
1331360069294,140.207
1331360129294,140.150
1331360189294,140.047
1331360249294,140.123
1331360309294,139.769
1331360369294,140.161
1331360429294,140.175
1331360489294,139.902
1331360549294,140.040
1331360609294,140.032
1331360669294,139.681
1331360729294,139.992
1331360789294,139.913
1331360849294,139.668
1331360909294,140.183
1331360969294,140.045
1331361029294,139.972
1331361089294,140.028
1331361149294,140.296
1331361209294,140.277
1331361269294,140.189
1331361329294,140.008
1331361389294,140.060
1331361449294,139.810
1331361509294,138.984
1331373809344,138.276
1331373869344,138.126
1331373929344,137.973
1331373989344,138.385
1331374049344,138.008
1331374109344,138.245
1331374169344,138.200
1331374229344,137.889
1331374289344,138.017
1331374349344,138.019
1331374409344,138.078
1331374469344,138.048
1331374529344,137.997
1331374589344,138.221
1331374649344,138.092
1331374709344,137.945
1331374769344,138.202
1331374829344,138.079
1331374889344,137.747
1331374949344,138.088
1331375009344,138.082
1331375069344,138.101
1331375129344,138.107
1331375189344,138.310
1331375249344,138.141
1331375309344,138.307
1331375369344,137.959
1331375429344,137.977
1331375489344,137.976
1331375549344,137.903
1331375609344,137.930
1331375669344,137.950
1331375729344,137.963
1331375789344,138.110
1331375849344,137.937
1331375909344,137.746
1331375969344,137.958
1331376029344,138.032
1331376089344,137.901
1331376149344,137.969
1331376209344,138.109
1331376269344,138.197
1331376329344,138.078
1331376389344,138.036
1331376449344,138.001
1331376509344,138.168
1331376569344,138.404
1331376629344,138.423
1331376689344,138.442
1331376749344,138.088
1331376809344,138.122
1331376869344,138.213
1331376929344,138.446
1331376989344,138.514
1331377049344,138.278
1331377109344,138.395
1331377169344,138.499
1331377229357,138.510
1331377289357,138.245
1331377349357,138.475
1331377409357,138.316
1331377469357,138.503
1331377529357,138.118
1331377589357,137.942
1331377649357,137.998
1331377709357,137.972
1331377769357,138.043
1331377829357,137.958
1331377889357,137.856
1331378429357,138.095
1331378489357,138.033
1331378549357,138.212
1331378609357,138.100
1331378669357,138.113
1331378729357,138.069
1331378789357,137.979
1331378849357,137.903
1331378909357,138.140
1331378969357,138.211
1331379029357,138.144
1331379089357,137.720
1331379149357,137.897
1331379209357,138.056
1331379269357,138.159
1331379329357,137.765
1331379389357,138.015
1331379449357,138.136
1331379509357,137.863
1331379569357,137.698
1331379629357,137.919
1331379689357,137.964
1331379749357,137.726
1331379809357,137.864
1331379869357,137.770
1331379929357,138.140
1331379989357,137.490
1331380049357,138.065
1331380109357,137.683
1331380169357,137.676
1331380229357,137.847
1331380289357,137.887
1331380349357,137.852
1331380409357,138.009
1331380469357,137.793
1331380529357,137.601
1331380589357,137.393
1331380649357,137.507
1331380709357,137.698
1331380769357,137.507
1331380829370,137.482
1331380889370,137.685
1331380949370,137.600
1331381009370,137.637
1331381069370,137.592
1331381129370,137.615
1331381189370,137.539
1331381249370,137.492
1331381309370,137.516
1331381369370,137.531
1331381429370,137.367
1331381489370,137.463
1331381549370,137.359
1331381609370,137.654
1331381669370,137.632
1331381729370,137.386
1331381789370,137.540
1331381849370,137.252
1331381909370,137.429
1331381969370,137.292
1331382029370,137.405
1331382089370,137.426
1331382149370,137.400
1331382209370,137.251
1331382269370,137.268
1331382329370,137.416
1331382389370,137.379
1331382449370,137.256
1331382509370,137.348
1331382569370,137.438
1331382629370,137.489
1331382689370,137.654
1331382749370,137.284
1331382809370,137.290
1331382869370,137.334
1331382929370,137.663
1331382989370,137.337
1331383049370,137.614
1331383109370,137.931
1331383169370,137.590
1331383229370,137.848
1331383289370,137.860
1331383349370,137.605
1331383409370,137.904
1331383469370,137.709
1331383529370,137.848
1331383589370,138.068
1331383649370,137.658
1331383709370,137.949
1331383769370,138.085
1331383829370,138.121
1331383889370,137.967
1331383949370,138.298
1331384009370,137.926
1331384069370,138.078
1331384129370,137.825
1331384189370,137.978
1331384249370,138.190
1331384309370,138.012
1331384369370,137.648
1331384429384,138.238
1331384489384,138.080
1331384549384,137.984
1331384609384,138.053
1331384669384,138.024
1331384729384,138.141
1331384789384,138.143
1331384849384,138.029
1331384909384,138.213
1331384969384,138.210
1331385029384,138.338
1331385089384,138.106
1331385149384,138.290
1331385209384,138.076
1331385269384,138.235
1331385329384,138.293
1331385389384,138.115
1331385449384,138.079
1331385509384,138.205
1331385569384,138.171
1331385629384,138.180
1331385689384,138.184
1331385749384,137.817
1331385809384,138.169
1331385869384,138.001
1331385929384,138.052
1331385989384,137.633
1331386049384,138.020
1331386109384,137.707
1331386169384,137.921
1331386229384,138.162
1331386289384,138.102
1331386349384,137.920
1331386409384,137.965
1331386469384,137.990
1331386529384,137.975
1331386589384,137.940
1331386649384,137.877
1331386709384,137.966
1331386769384,137.887
1331386829384,137.903
1331386889384,137.868
1331386949384,138.240
1331387009384,138.099
1331387069384,138.339
1331387129384,138.124
1331387189384,138.010
1331387249384,137.683
1331387309384,137.880
1331387369384,138.118
1331387429384,138.050
1331387489384,137.869
1331387549384,137.991
1331387609384,138.054
1331387669384,138.338
1331387729384,138.077
1331387789384,137.867
1331387849384,138.241
1331387909384,138.305
1331387969384,137.825
1331388029397,138.046
1331388089397,138.189
1331388149397,137.835
1331388209397,137.769
1331388269397,137.973
1331388329397,137.870
1331388389397,137.891
1331388449397,137.654
1331388509397,137.893
1331388569397,137.993
1331388629397,137.760
1331388689397,137.960
1331388749397,137.675
1331388809397,137.911
1331388869397,137.648
1331388929397,137.781
1331388989397,137.966
1331389049397,137.859
1331389109397,137.916
1331389169397,137.974
1331389229397,137.957
1331389289397,138.216
1331389349397,138.280
1331389409397,138.062
1331389469397,137.895
1331389529397,137.867
1331389589397,138.085
1331389649397,137.936
1331389709397,138.249
1331389769397,138.093
1331389829397,138.192
1331389889397,138.060
1331389949397,138.170
1331390009397,138.171
1331390069397,137.790
1331390129397,138.156
1331390189397,138.263
1331390249397,138.146
1331390309397,138.307
1331390369397,138.364
1331390429397,138.312
1331390489397,138.233
1331390549397,138.125
1331390609397,138.312
1331390669397,138.399
1331390729397,138.073
1331390789397,138.361
1331390849397,138.490
1331390909397,138.105
1331390969397,138.046
1331391029397,138.006
1331391089397,138.284
1331391149397,138.388
1331391209397,138.422
1331391269397,138.122
1331391329397,138.409
1331391389397,138.133
1331391449397,138.138
1331391509397,138.210
1331391569397,138.275
1331391629410,137.965
1331391689410,138.420
1331391749410,137.702
1331391809410,138.077
1331391869410,138.039
1331391929410,137.899
1331391989410,138.028
1331392049410,137.868
1331392109410,138.118
1331392169410,137.853
1331392229410,138.240
1331392289410,138.403
1331392349410,138.535
1331392409410,138.245
1331392469410,137.997
1331392529410,138.318
1331392589410,138.042
1331392649410,138.167
1331392709410,138.121
1331392769410,137.962
1331392829410,138.267
1331392889410,137.950
1331392949410,138.309
1331393009410,138.345
1331393069410,138.033
1331393129410,138.107
1331393189410,138.163
1331393249410,138.044
1331393309410,138.220
1331393369410,138.278
1331393429410,138.046
1331393489410,137.705
1331393549410,138.454
1331393609410,137.934
1331393669410,138.102
1331393729410,138.193
1331393789410,138.226
1331393849410,138.170
1331393909410,138.555
1331393969410,138.235
1331394029410,138.806
1331394089410,138.867
1331394149410,138.939
1331394209410,139.175
1331394269410,138.847
1331394329410,139.064
1331394389410,138.934
1331394449410,138.720
1331394509410,138.826
1331394569410,138.755
1331394629410,138.804
1331394689410,138.875
1331394749410,138.949
1331394809410,138.789
1331394869410,138.625
1331394929410,138.792
1331394989410,138.780
1331395049410,138.916
1331395109410,138.679
1331395169410,138.376
1331395229423,138.421
1331395289423,138.216
1331395349423,138.639
1331395409423,138.317
1331395469423,138.316
1331395529423,138.169
1331395589423,137.988
1331395649423,137.736
1331395709423,137.631
1331395769423,137.945
1331395829423,137.732
1331395889423,137.954
1331395949423,137.543
1331396009423,137.506
1331396069423,137.442
1331396129423,137.342
1331396189423,137.426
1331396249423,137.304
1331396309423,137.212
1331396369423,137.247
1331396429423,137.265
1331396489423,137.262
1331396549423,137.045
1331396609423,136.994
1331396669423,136.854
1331396729423,136.449
1331396789423,136.574
1331396849423,136.614
1331396909423,136.838
1331396969423,136.598
1331397029423,136.600
1331397089423,136.928
1331397149423,136.985
1331397209423,136.768
1331397269423,136.845
1331397329423,136.864
1331397389423,136.676
1331397449423,136.726
1331397509423,136.761
1331397569423,136.705
1331397629423,136.860
1331397689423,136.797
1331397749423,136.615
1331397809423,136.744
1331397869423,136.574
1331397929423,136.468
1331397989423,136.390
1331398049423,136.595
1331398109423,136.152
1331398169423,136.337
1331398229423,136.330
1331398289423,136.311
1331398349423,136.233
1331398409423,136.144
1331398469423,136.162
1331398529423,136.103
1331398589423,136.165
1331398649423,136.164
1331398709423,136.119
1331398769423,136.291
1331398829436,136.000
1331398889436,135.955
1331398949436,136.181
1331399009436,136.194
1331399069436,136.240
1331399129436,136.440
1331399189436,136.371
1331399249436,136.174
1331399309436,136.337
1331399369436,136.086
1331399429436,136.259
1331399489436,135.981
1331399549436,136.068
1331399609436,136.205
1331399669436,135.995
1331399729436,136.169
1331399789436,136.490
1331399849436,136.295
1331399909436,136.439
1331399969436,136.637
1331400029436,136.816
1331400089436,137.822
1331400149436,139.878
1331400209436,142.425
1331400269436,144.927
1331400329436,144.660
1331400389436,144.865
1331400449436,145.244
1331400509436,145.238
1331400569436,144.705
1331400629436,144.364
1331400689436,144.444
1331400749436,145.033
1331400809436,145.744
1331400869436,146.512
1331400929436,146.457
1331400989436,146.493
1331401049436,147.657
1331401109436,147.603
1331401169436,147.838
1331401229436,147.431
1331401289436,147.778
1331401349436,147.782
1331401409436,147.489
1331401469436,147.476
1331401529436,147.452
1331401589436,147.332
1331401649436,147.486
1331401709436,147.126
1331401769436,146.981
1331401829436,147.278
1331401889436,147.276
1331401949436,147.299
1331402009436,146.927
1331402069436,146.975
1331402129436,146.603
1331402189436,146.142
1331402249436,145.510
1331402309436,145.416
1331402369436,145.081
1331402429449,145.070
1331402489449,144.771
1331402549449,144.420
1331402609449,143.676
1331402669449,143.392
1331402729449,143.467
1331402789449,143.442
1331402849449,143.208
1331402909449,142.415
1331402969449,142.639
1331403029449,142.233
1331403089449,141.761
1331403149449,141.767
1331403209449,141.790
1331403269449,141.565
1331403329449,141.612
1331403389449,141.443
1331403449449,142.380
1331403509449,141.440
1331403569449,141.202
1331403629449,141.012
1331403689449,140.886
1331403749449,140.780
1331403809449,140.567
1331403869449,141.110
1331403929449,141.109
1331403989449,140.826
1331404049449,140.363
1331404109449,140.162
1331404169449,139.656
1331404229449,139.796
1331404289449,139.743
1331404349449,139.239
1331404409449,139.253
1331404469449,139.099
1331404529449,138.968
1331404589449,138.714
1331404649449,138.852
1331404709449,139.109
1331404769449,138.482
1331404829449,138.470
1331404889449,138.067
1331404949449,137.661
1331405009449,137.488
1331405069449,137.903
1331405129449,137.905
1331405189449,138.078
1331405249449,138.132
1331405309449,138.044
1331405369449,138.500
1331405429449,138.446
1331405489449,138.092
1331405549449,137.962
1331405609449,137.819
1331405669449,137.695
1331405729449,137.596
1331405789449,137.379
1331405849449,137.543
1331405909449,137.773
1331405969449,137.767
1331406029462,137.704
1331406089462,138.097
1331406149462,138.108
1331406209462,137.696
1331406269462,137.655
1331406329462,137.405
1331406389462,137.461
1331406449462,137.152
1331406509462,137.130
1331406569462,136.740
1331406629462,136.376
1331406689462,136.719
1331406749462,136.637
1331406809462,136.653
1331406869462,136.488
1331406929462,136.575
1331406989462,136.409
1331407049462,136.367
1331407109462,136.462
1331407169462,136.700
1331407229462,137.261
1331407289462,137.292
1331407349462,137.412
1331407409462,137.472
1331407469462,137.460
1331407529462,137.206
1331407589462,136.659
1331407649462,136.687
1331407709462,136.369
1331407769462,136.121
1331407829462,135.881
1331407889462,136.409
1331407949462,136.115
1331408009462,136.342
1331408069462,136.490
1331408129462,136.247
1331408189462,136.479
1331408249462,136.438
1331408309462,136.311
1331408369462,136.869
1331408429462,136.639
1331408489462,136.521
1331408549462,136.630
1331408609462,136.335
1331408669462,136.193
1331408729462,135.828
1331408789462,135.984
1331408849462,136.127
1331408909462,136.099
1331408969462,135.791
1331409029462,135.737
1331409089462,135.777
1331409149462,135.584
1331409209462,135.557
1331409269462,135.332
1331409329462,135.538
1331409389462,135.607
1331409449462,135.587
1331409509462,135.722
1331409569462,135.566
1331409629475,135.358
1331409689475,136.072
1331409749475,135.829
1331409809475,135.610
1331409869475,135.366
1331409929475,135.657
1331409989475,135.242
1331410049475,135.492
1331410109475,135.255
1331410169475,135.477
1331410229475,135.592
1331410289475,135.121
1331410349475,135.208
1331410409475,134.924
1331410469475,134.996
1331410529475,134.937
1331410589475,134.894
1331410649475,134.826
1331410709475,135.061
1331410769475,135.072
1331410829475,135.233
1331410889475,135.121
1331410949475,134.921
1331411009475,135.044
1331411069475,134.812
1331411129475,134.907
1331411189475,134.972
1331411249475,134.500
1331411309475,134.609
1331411369475,134.658
1331411429475,135.125
1331411489475,134.816
1331411549475,134.757
1331411609475,134.783
1331411669475,135.024
1331411729475,134.811
1331411789475,134.883
1331411849475,135.169
1331411909475,134.891
1331411969475,135.080
1331412029475,135.378
1331412089475,135.024
1331412149475,135.108
1331412209475,135.177
1331412269475,135.204
1331412329475,135.453
1331412389475,135.383
1331412449475,135.592
1331412509475,135.434
1331412569475,135.137
1331412629475,135.293
1331412689475,134.937
1331412749475,135.180
1331412809475,134.995
1331412869475,135.347
1331412929475,135.050
1331412989475,134.968
1331413049475,134.873
1331413109475,134.786
1331413169475,134.915
1331413229488,134.732
1331413289488,134.838
1331413349488,134.779
1331413409488,134.940
1331413469488,134.890
1331413529488,134.753
1331413589488,134.723
1331413649488,134.409
1331413709488,134.793
1331413769488,134.847
1331413829488,134.777
1331413889488,135.000
1331413949488,134.928
1331414009488,134.905
1331414069488,135.100
1331414129488,134.887
1331414189488,134.691
1331414249488,135.064
1331414309488,134.762
1331414369488,134.661
1331414429488,134.650
1331414489488,135.024
1331414549488,134.793
1331414609488,135.059
1331414669488,134.587
1331414729488,134.692
1331414789488,134.894
1331414849488,134.895
1331414909488,135.061
1331414969488,134.853
1331415029488,135.001
1331415089488,134.810
1331415149488,135.273
1331415209488,134.953
1331415269488,134.789
1331415329488,135.066
1331415389488,135.251
1331415449488,135.195
1331415509488,135.078
1331415569488,134.907
1331415629488,135.030
1331415689488,135.054